Location: Springfield
(37.2150°N, 93.2980°W)
Time: 09:39:17
(UTC-05:00)

Envisat - Visible Passes

Search period start: 25 April 2019 00:00
Search period end: 05 May 2019 00:00
Orbit: 764 x 766 km, 98.2° (Epoch: 24 April)

Date Brightness Start Highest point End Pass type
(mag) Time Alt. Az. Time Alt. Az. Time Alt. Az.
25 Apr 5.7 20:57:38 10° SW 21:01:08 19° W 21:04:38 10° NW visible
26 Apr 4.4 20:19:21 10° S 20:24:09 43° W 20:28:59 10° NNW visible
28 Apr 5.4 20:45:46 10° SSW 20:49:49 24° W 20:53:53 10° NW visible
30 Apr 5.9 21:13:18 10° WSW 21:15:34 13° W 21:17:51 10° WNW visible
01 May 5.0 20:34:05 10° SSW 20:38:31 30° W 20:42:59 10° NW visible
03 May 5.7 21:01:01 10° SW 21:04:14 17° W 21:07:29 10° NW visible
